QPF
0.00 0.00 0.01 0.00 0.00 0.00 0.00 0.01 0.01 0.01 0.02 0.03 0.03 0.04 0.06 0.07 0.07 0.05 0.04 0.05 0.07 0.11 0.14 0.15 0.13 0.12 0.10 0.10 0.10 0.11 0.12 0.13 0.15 0.15 0.14 0.13 0.14 0.14 0.14 0.12 0.10 0.08 0.07
0.00 0.01 0.00 0.00 0.00 0.00 0.00 0.00 0.01 0.01 0.01 0.02 0.03 0.04 0.05 0.06 0.08 0.07 0.05 0.04 0.04 0.05 0.08 0.10 0.08 0.06 0.06 0.07 0.08 0.09 0.10 0.11 0.12 0.14 0.14 0.13 0.14 0.13 0.12 0.10 0.08 0.06 0.05
0.00 0.01 0.00 0.00 0.00 0.00 0.00 0.00 0.00 0.01 0.01 0.02 0.02 0.03 0.03 0.03 0.04 0.04 0.03 0.03 0.03 0.03 0.03 0.04 0.04 0.04 0.05 0.06 0.07 0.08 0.09 0.09 0.10 0.10 0.12 0.12 0.12 0.10 0.09 0.08 0.06 0.05 0.04
0.00 0.00 0.00 0.00 0.00 0.00 0.00 0.00 0.00 0.00 0.00 0.00 0.01 0.01 0.01 0.01 0.00 0.01 0.01 0.01 0.01 0.02 0.02 0.03 0.03 0.04 0.05 0.06 0.06 0.06 0.07 0.08 0.09 0.10 0.12 0.12 0.10 0.08 0.07 0.06 0.05 0.03 0.03
0.00 0.01 0.01 0.01 0.00 0.00 0.00 0.00 0.00 0.00 0.00 0.00 0.00 0.00 0.00 0.00 0.00 0.00 0.00 0.00 0.00 0.02 0.03 0.03 0.03 0.05 0.07 0.06 0.06 0.05 0.06 0.07 0.08 0.08 0.09 0.09 0.08 0.07 0.06 0.05 0.03 0.03 0.03
0.00 0.01 0.02 0.02 0.01 0.01 0.01 0.01 0.00 0.00 0.00 0.00 0.00 0.00 0.00 0.00 0.00 0.00 0.00 0.00 0.01 0.01 0.03 0.04 0.04 0.05 0.07 0.07 0.07 0.08 0.08 0.09 0.09 0.09 0.07 0.06 0.06 0.05 0.04 0.03 0.03 0.02 0.02
0.01 0.01 0.02 0.02 0.02 0.02 0.02 0.01 0.01 0.01 0.00 0.00 0.00 0.00 0.00 0.01 0.01 0.01 0.01 0.01 0.01 0.02 0.03 0.03 0.04 0.05 0.05 0.04 0.06 0.09 0.10 0.11 0.10 0.08 0.07 0.05 0.04 0.03 0.03 0.02 0.02 0.01 0.01
0.01 0.02 0.02 0.02 0.03 0.03 0.02 0.02 0.01 0.01 0.01 0.01 0.01 0.01 0.01 0.01 0.01 0.01 0.01 0.01 0.01 0.03 0.04 0.04 0.04 0.05 0.05 0.05 0.05 0.06 0.07 0.07 0.07 0.06 0.04 0.03 0.03 0.02 0.02 0.01 0.01 0.00 0.00
0.02 0.02 0.02 0.03 0.03 0.03 0.02 0.02 0.01 0.01 0.01 0.01 0.01 0.01 0.01 0.01 0.01 0.01 0.01 0.01 0.01 0.02 0.03 0.04 0.05 0.06 0.07 0.06 0.05 0.05 0.04 0.04 0.04 0.04 0.03 0.02 0.01 0.01 0.01 0.01 0.01 0.00 0.00
0.03 0.03 0.02 0.03 0.02 0.02 0.02 0.02 0.02 0.01 0.01 0.01 0.01 0.01 0.00 0.01 0.01 0.01 0.02 0.01 0.01 0.02 0.02 0.04 0.05 0.05 0.05 0.04 0.04 0.04 0.04 0.03 0.03 0.03 0.02 0.02 0.01 0.01 0.01 0.00 0.00 0.00 0.00
0.01 0.01 0.02 0.02 0.02 0.02 0.01 0.02 0.02 0.02 0.01 0.01 0.01 0.01 0.01 0.01 0.01 0.01 0.01 0.01 0.01 0.01 0.02 0.02 0.03 0.03 0.03 0.03 0.02 0.02 0.02 0.02 0.02 0.02 0.01 0.01 0.00 0.00 0.00 0.00 0.00 0.00 0.00
0.01 0.01 0.01 0.01 0.01 0.01 0.01 0.02 0.02 0.02 0.02 0.01 0.01 0.01 0.01 0.01 0.01 0.01 0.01 0.01 0.01 0.01 0.01 0.02 0.02 0.02 0.02 0.01 0.01 0.01 0.01 0.01 0.01 0.01 0.01 0.01 0.01 0.00 0.00 0.00 0.00 0.00 0.00
0.01 0.01 0.01 0.01 0.01 0.01 0.01 0.01 0.01 0.01 0.01 0.01 0.01 0.00 0.01 0.01 0.02 0.01 0.01 0.01 0.01 0.01 0.01 0.01 0.01 0.01 0.01 0.01 0.01 0.01 0.00 0.00 0.00 0.00 0.00 0.00 0.00 0.00 0.00 0.00 0.00 0.00 0.00
0.01 0.01 0.01 0.01 0.01 0.01 0.01 0.01 0.00 0.00 0.01 0.00 0.00 0.01 0.01 0.01 0.02 0.02 0.01 0.01 0.01 0.01 0.01 0.01 0.01 0.01 0.01 0.01 0.00 0.00 0.00 0.00 0.00 0.00 0.00 0.00 0.00 0.00 0.00 0.00 0.00 0.00 0.00
0.01 0.01 0.01 0.01 0.01 0.01 0.01 0.00 0.00 0.00 0.01 0.01 0.00 0.00 0.01 0.01 0.02 0.02 0.02 0.01 0.01 0.01 0.01 0.01 0.00 0.00 0.00 0.00 0.00 0.00 0.00 0.00 0.00 0.00 0.00 0.00 0.00 0.00 0.00 0.00 0.00 0.00 0.00
0.01 0.01 0.01 0.01 0.01 0.01 0.00 0.00 0.00 0.00 0.00 0.00 0.00 0.00 0.00 0.01 0.02 0.02 0.01 0.01 0.00 0.01 0.01 0.01 0.00 0.00 0.00 0.00 0.00 0.00 0.00 0.00 0.00 0.00 0.00 0.00 0.00 0.00 0.00 0.00 0.00 0.00 0.00
0.01 0.01 0.01 0.01 0.01 0.01 0.00 0.00 0.00 0.00 0.00 0.00 0.00 0.00 0.00 0.01 0.01 0.01 0.01 0.01 0.01 0.01 0.01 0.01 0.01 0.00 0.00 0.00 0.00 0.00 0.00 0.00 0.00 0.00 0.00 0.00 0.00 0.00 0.00 0.00 0.00 0.00 0.00
0.01 0.00 0.00 0.01 0.01 0.00 0.00 0.00 0.00 0.00 0.00 0.00 0.00 0.00 0.00 0.01 0.01 0.01 0.01 0.01 0.01 0.01 0.00 0.00 0.00 0.00 0.00 0.00 0.00 0.00 0.00 0.00 0.00 0.00 0.00 0.00 0.00 0.00 0.00 0.00 0.00 0.00 0.00
0.00 0.00 0.00 0.00 0.00 0.00 0.00 0.00 0.00 0.00 0.00 0.00 0.00 0.00 0.00 0.01 0.01 0.01 0.01 0.01 0.01 0.00 0.00 0.00 0.00 0.00 0.00 0.00 0.00 0.00 0.00 0.00 0.00 0.00 0.00 0.00 0.00 0.00 0.00 0.00 0.00 0.00 0.00
0.00 0.00 0.01 0.01 0.00 0.00 0.00 0.00 0.00 0.00 0.00 0.00 0.00 0.00 0.00 0.00 0.00 0.00 0.00 0.00 0.00 0.00 0.00 0.00 0.00 0.00 0.00 0.00 0.00 0.00 0.00 0.00 0.00 0.00 0.00 0.00 0.00 0.00 0.00 0.00 0.00 0.00 0.00
0.00 0.00 0.00 0.00 0.00 0.00 0.00 0.00 0.00 0.00 0.00 0.00 0.00 0.00 0.00 0.00 0.00 0.00 0.00 0.00 0.00 0.00 0.00 0.00 0.00 0.00 0.00 0.00 0.00 0.00 0.00 0.00 0.00 0.00 0.00 0.00 0.00 0.00 0.00 0.00 0.00 0.00 0.00
0.00 0.01 0.00 0.00 0.00 0.00 0.00 0.01 0.01 0.00 0.00 0.00 0.00 0.00 0.00 0.00 0.00 0.00 0.00 0.00 0.00 0.00 0.00 0.00 0.00 0.00 0.00 0.00 0.00 0.00 0.00 0.00 0.00 0.00 0.00 0.00 0.00 0.00 0.00 0.00 0.00 0.00 0.00
0.00 0.00 0.00 0.00 0.00 0.00 0.00 0.00 0.00 0.00 0.00 0.00 0.00 0.00 0.00 0.00 0.00 0.00 0.00 0.00 0.00 0.00 0.00 0.00 0.00 0.00 0.00 0.00 0.00 0.00 0.00 0.00 0.00 0.00 0.00 0.00 0.00 0.00 0.00 0.00 0.00 0.00 0.00
0.00 0.00 0.00 0.00 0.00 0.00 0.00 0.00 0.00 0.00 0.00 0.00 0.00 0.00 0.00 0.00 0.00 0.00 0.00 0.00 0.00 0.00 0.00 0.00 0.00 0.00 0.00 0.00 0.00 0.00 0.00 0.00 0.00 0.00 0.00 0.00 0.00 0.00 0.00 0.00 0.00 0.00 0.00
0.00 0.00 0.00 0.00 0.00 0.00 0.00 0.00 0.00 0.00 0.00 0.00 0.00 0.00 0.00 0.00 0.00 0.00 0.00 0.00 0.00 0.00 0.00 0.00 0.00 0.00 0.00 0.00 0.00 0.00 0.00 0.00 0.00 0.00 0.00 0.00 0.00 0.00 0.00 0.00 0.00 0.00 0.00
0.00 0.00 0.00 0.00 0.00 0.00 0.00 0.00 0.00 0.00 0.00 0.00 0.00 0.00 0.00 0.00 0.00 0.00 0.00 0.00 0.00 0.00 0.00 0.00 0.00 0.00 0.00 0.00 0.00 0.00 0.00 0.00 0.00 0.00 0.00 0.00 0.00 0.00 0.00 0.00 0.00 0.00 0.00
MSLP
1021.58 1021.45 1021.30 1021.12 1020.89 1020.60 1020.24 1019.83 1019.38 1018.92 1018.50 1018.11 1017.80 1017.55 1017.37 1017.23 1017.14 1017.06 1016.98 1016.89 1016.79 1016.68 1016.56 1016.45 1016.36 1016.31 1016.32 1016.41 1016.60 1016.91 1017.35 1017.91 1018.58 1019.35 1020.18 1021.04 1021.88 1022.67 1023.39 1024.00 1024.50 1024.91 1025.22
1021.77 1021.67 1021.54 1021.38 1021.17 1020.89 1020.55 1020.15 1019.71 1019.26 1018.82 1018.42 1018.08 1017.81 1017.60 1017.47 1017.38 1017.32 1017.29 1017.25 1017.21 1017.14 1017.05 1016.96 1016.86 1016.78 1016.76 1016.82 1016.98 1017.28 1017.73 1018.32 1019.04 1019.88 1020.78 1021.69 1022.57 1023.38 1024.08 1024.65 1025.09 1025.41 1025.64
1021.95 1021.88 1021.78 1021.64 1021.45 1021.19 1020.87 1020.49 1020.07 1019.63 1019.19 1018.79 1018.43 1018.14 1017.92 1017.78 1017.69 1017.66 1017.66 1017.67 1017.67 1017.66 1017.61 1017.54 1017.46 1017.39 1017.36 1017.41 1017.56 1017.85 1018.29 1018.89 1019.63 1020.47 1021.38 1022.29 1023.16 1023.94 1024.60 1025.11 1025.48 1025.72 1025.86
1022.13 1022.10 1022.02 1021.91 1021.73 1021.50 1021.20 1020.84 1020.45 1020.02 1019.60 1019.20 1018.84 1018.55 1018.32 1018.17 1018.09 1018.07 1018.08 1018.13 1018.17 1018.20 1018.20 1018.18 1018.14 1018.09 1018.08 1018.13 1018.29 1018.57 1018.99 1019.56 1020.27 1021.07 1021.93 1022.79 1023.60 1024.31 1024.90 1025.34 1025.64 1025.81 1025.89
1022.30 1022.29 1022.24 1022.14 1021.99 1021.78 1021.51 1021.18 1020.82 1020.43 1020.03 1019.65 1019.31 1019.02 1018.79 1018.64 1018.55 1018.53 1018.55 1018.61 1018.69 1018.75 1018.80 1018.82 1018.83 1018.83 1018.85 1018.92 1019.08 1019.35 1019.74 1020.26 1020.90 1021.62 1022.39 1023.15 1023.86 1024.48 1024.98 1025.34 1025.58 1025.71 1025.75
1022.42 1022.43 1022.40 1022.32 1022.20 1022.01 1021.77 1021.49 1021.17 1020.83 1020.48 1020.14 1019.82 1019.55 1019.33 1019.17 1019.08 1019.04 1019.06 1019.13 1019.21 1019.30 1019.38 1019.45 1019.50 1019.55 1019.61 1019.71 1019.87 1020.12 1020.48 1020.93 1021.48 1022.09 1022.74 1023.37 1023.96 1024.47 1024.88 1025.17 1025.36 1025.46 1025.49
1022.47 1022.51 1022.50 1022.45 1022.35 1022.20 1022.00 1021.78 1021.52 1021.24 1020.95 1020.66 1020.39 1020.14 1019.93 1019.77 1019.66 1019.61 1019.62 1019.67 1019.75 1019.84 1019.95 1020.04 1020.14 1020.22 1020.32 1020.45 1020.62 1020.85 1021.15 1021.53 1021.97 1022.47 1022.98 1023.48 1023.95 1024.35 1024.67 1024.90 1025.06 1025.15 1025.19
1022.47 1022.52 1022.54 1022.52 1022.45 1022.35 1022.22 1022.06 1021.87 1021.66 1021.44 1021.22 1020.99 1020.78 1020.59 1020.43 1020.32 1020.24 1020.22 1020.25 1020.31 1020.40 1020.50 1020.62 1020.74 1020.85 1020.98 1021.12 1021.29 1021.50 1021.75 1022.05 1022.40 1022.77 1023.16 1023.53 1023.88 1024.18 1024.43 1024.62 1024.75 1024.85 1024.91
1022.44 1022.52 1022.57 1022.58 1022.57 1022.52 1022.46 1022.37 1022.26 1022.13 1021.98 1021.82 1021.65 1021.47 1021.30 1021.15 1021.02 1020.93 1020.88 1020.87 1020.91 1020.98 1021.07 1021.19 1021.32 1021.45 1021.59 1021.73 1021.90 1022.08 1022.29 1022.53 1022.78 1023.06 1023.33 1023.60 1023.85 1024.07 1024.25 1024.40 1024.53 1024.63 1024.71
1022.44 1022.55 1022.64 1022.70 1022.74 1022.76 1022.76 1022.74 1022.71 1022.65 1022.57 1022.46 1022.34 1022.20 1022.04 1021.90 1021.76 1021.65 1021.57 1021.54 1021.54 1021.59 1021.67 1021.77 1021.89 1022.03 1022.17 1022.32 1022.47 1022.63 1022.80 1022.98 1023.17 1023.36 1023.55 1023.73 1023.90 1024.06 1024.19 1024.32 1024.43 1024.54 1024.64
1022.50 1022.65 1022.78 1022.90 1023.00 1023.09 1023.16 1023.20 1023.23 1023.23 1023.20 1023.14 1023.04 1022.92 1022.79 1022.64 1022.50 1022.38 1022.28 1022.22 1022.20 1022.22 1022.28 1022.37 1022.48 1022.61 1022.74 1022.88 1023.02 1023.16 1023.30 1023.44 1023.58 1023.72 1023.84 1023.96 1024.08 1024.18 1024.28 1024.37 1024.47 1024.57 1024.67
1022.65 1022.84 1023.03 1023.21 1023.37 1023.52 1023.64 1023.73 1023.80 1023.84 1023.84 1023.80 1023.72 1023.61 1023.48 1023.34 1023.20 1023.07 1022.96 1022.88 1022.85 1022.85 1022.89 1022.97 1023.06 1023.17 1023.30 1023.42 1023.55 1023.68 1023.80 1023.91 1024.02 1024.12 1024.21 1024.29 1024.36 1024.42 1024.48 1024.54 1024.61 1024.69 1024.77
1022.87 1023.12 1023.37 1023.60 1023.82 1024.01 1024.17 1024.30 1024.39 1024.44 1024.44 1024.40 1024.33 1024.22 1024.08 1023.94 1023.80 1023.67 1023.56 1023.48 1023.44 1023.44 1023.47 1023.52 1023.60 1023.70 1023.81 1023.93 1024.04 1024.16 1024.27 1024.37 1024.47 1024.55 1024.61 1024.67 1024.71 1024.74 1024.76 1024.79 1024.82 1024.86 1024.90
1023.14 1023.44 1023.74 1024.02 1024.28 1024.51 1024.69 1024.83 1024.92 1024.96 1024.95 1024.90 1024.81 1024.69 1024.55 1024.40 1024.26 1024.14 1024.04 1023.97 1023.94 1023.93 1023.95 1024.00 1024.07 1024.16 1024.25 1024.36 1024.46 1024.57 1024.68 1024.78 1024.87 1024.95 1025.00 1025.04 1025.06 1025.06 1025.06 1025.04 1025.03 1025.02 1025.01
1023.40 1023.74 1024.08 1024.40 1024.69 1024.93 1025.13 1025.26 1025.34 1025.36 1025.32 1025.24 1025.13 1024.99 1024.85 1024.70 1024.57 1024.46 1024.38 1024.32 1024.30 1024.30 1024.32 1024.37 1024.43 1024.50 1024.59 1024.68 1024.78 1024.89 1025.00 1025.10 1025.19 1025.27 1025.33 1025.36 1025.36 1025.34 1025.30 1025.25 1025.18 1025.12 1025.06
1023.60 1023.97 1024.33 1024.67 1024.98 1025.23 1025.42 1025.54 1025.60 1025.59 1025.53 1025.43 1025.29 1025.14 1024.99 1024.85 1024.73 1024.63 1024.56 1024.53 1024.52 1024.53 1024.56 1024.60 1024.66 1024.72 1024.80 1024.89 1024.99 1025.09 1025.20 1025.31 1025.41 1025.49 1025.55 1025.58 1025.57 1025.53 1025.47 1025.37 1025.27 1025.15 1025.04
1023.71 1024.08 1024.46 1024.80 1025.11 1025.36 1025.54 1025.65 1025.69 1025.66 1025.58 1025.46 1025.31 1025.16 1025.01 1024.88 1024.77 1024.69 1024.64 1024.62 1024.63 1024.65 1024.68 1024.73 1024.78 1024.84 1024.91 1024.99 1025.09 1025.19 1025.30 1025.41 1025.52 1025.60 1025.66 1025.69 1025.68 1025.62 1025.54 1025.42 1025.28 1025.12 1024.97
1023.73 1024.10 1024.46 1024.80 1025.10 1025.34 1025.51 1025.61 1025.64 1025.60 1025.52 1025.39 1025.25 1025.10 1024.96 1024.85 1024.76 1024.70 1024.66 1024.66 1024.67 1024.70 1024.74 1024.78 1024.83 1024.88 1024.95 1025.03 1025.11 1025.22 1025.32 1025.44 1025.54 1025.63 1025.68 1025.71 1025.69 1025.63 1025.53 1025.39 1025.23 1025.06 1024.87
1023.69 1024.04 1024.38 1024.70 1024.98 1025.21 1025.37 1025.46 1025.49 1025.47 1025.39 1025.28 1025.16 1025.03 1024.91 1024.81 1024.74 1024.69 1024.68 1024.68 1024.70 1024.73 1024.76 1024.80 1024.84 1024.89 1024.95 1025.02 1025.11 1025.20 1025.30 1025.41 1025.51 1025.59 1025.64 1025.66 1025.64 1025.57 1025.47 1025.33 1025.16 1024.98 1024.79
1023.64 1023.95 1024.26 1024.55 1024.81 1025.02 1025.17 1025.27 1025.31 1025.30 1025.25 1025.17 1025.07 1024.97 1024.88 1024.80 1024.75 1024.72 1024.71 1024.71 1024.73 1024.76 1024.79 1024.82 1024.86 1024.90 1024.95 1025.02 1025.09 1025.18 1025.27 1025.37 1025.46 1025.53 1025.57 1025.58 1025.56 1025.49 1025.39 1025.25 1025.10 1024.92 1024.74
1023.61 1023.88 1024.15 1024.40 1024.63 1024.83 1024.97 1025.08 1025.13 1025.15 1025.12 1025.07 1025.01 1024.94 1024.88 1024.83 1024.79 1024.77 1024.76 1024.77 1024.78 1024.80 1024.83 1024.85 1024.88 1024.91 1024.96 1025.01 1025.08 1025.16 1025.24 1025.32 1025.40 1025.46 1025.49 1025.49 1025.46 1025.40 1025.30 1025.18 1025.04 1024.88 1024.71
1023.62 1023.84 1024.06 1024.28 1024.48 1024.65 1024.79 1024.90 1024.97 1025.00 1025.01 1024.99 1024.96 1024.93 1024.89 1024.86 1024.84 1024.82 1024.82 1024.82 1024.82 1024.83 1024.84 1024.86 1024.88 1024.91 1024.95 1025.00 1025.06 1025.13 1025.20 1025.27 1025.33 1025.38 1025.40 1025.39 1025.36 1025.30 1025.21 1025.10 1024.98 1024.84 1024.69
1023.66 1023.83 1024.01 1024.19 1024.35 1024.50 1024.62 1024.72 1024.80 1024.85 1024.88 1024.89 1024.89 1024.88 1024.86 1024.84 1024.83 1024.82 1024.81 1024.80 1024.80 1024.80 1024.80 1024.80 1024.81 1024.84 1024.88 1024.92 1024.98 1025.05 1025.12 1025.18 1025.23 1025.27 1025.28 1025.27 1025.24 1025.18 1025.10 1025.00 1024.89 1024.77 1024.64
1023.68 1023.82 1023.96 1024.10 1024.22 1024.34 1024.44 1024.53 1024.60 1024.65 1024.69 1024.71 1024.73 1024.73 1024.73 1024.73 1024.72 1024.70 1024.69 1024.67 1024.66 1024.64 1024.63 1024.63 1024.64 1024.66 1024.70 1024.75 1024.81 1024.88 1024.95 1025.02 1025.07 1025.11 1025.12 1025.11 1025.07 1025.02 1024.94 1024.85 1024.75 1024.63 1024.49
1023.67 1023.78 1023.88 1023.97 1024.06 1024.14 1024.21 1024.27 1024.33 1024.37 1024.40 1024.43 1024.45 1024.46 1024.47 1024.47 1024.46 1024.44 1024.42 1024.39 1024.36 1024.34 1024.32 1024.31 1024.32 1024.34 1024.39 1024.44 1024.52 1024.60 1024.68 1024.76 1024.82 1024.86 1024.88 1024.88 1024.85 1024.80 1024.72 1024.63 1024.52 1024.39 1024.23
1023.58 1023.67 1023.73 1023.79 1023.84 1023.88 1023.91 1023.94 1023.96 1023.99 1024.01 1024.02 1024.04 1024.05 1024.06 1024.05 1024.04 1024.02 1023.99 1023.96 1023.92 1023.88 1023.86 1023.85 1023.85 1023.88 1023.93 1024.00 1024.09 1024.19 1024.29 1024.38 1024.47 1024.53 1024.56 1024.57 1024.55 1024.50 1024.42 1024.31 1024.18 1024.02 1023.83
Thickness
5605 5605 5605 5605 5606 5607 5607 5609 5610 5611 5613 5615 5616 5618 5619 5622 5624 5626 5627 5629 5630 5632 5633 5634 5636 5637 5636 5636 5635 5634 5632 5629 5621 5611 5607 5604 5601 5599 5595 5592 5590 5587 5584
5597 5596 5596 5596 5597 5598 5598 5600 5601 5602 5604 5605 5607 5608 5610 5611 5613 5615 5617 5619 5620 5622 5623 5625 5626 5627 5627 5627 5627 5625 5623 5621 5616 5606 5598 5595 5592 5589 5586 5583 5580 5577 5575
5588 5587 5587 5587 5587 5587 5588 5589 5591 5592 5593 5595 5596 5597 5599 5600 5602 5604 5606 5608 5609 5611 5612 5614 5616 5618 5618 5618 5618 5616 5614 5611 5607 5600 5591 5586 5583 5580 5577 5574 5571 5568 5565
5580 5578 5577 5577 5577 5578 5579 5579 5580 5582 5583 5584 5585 5586 5588 5590 5592 5594 5595 5596 5598 5600 5602 5604 5606 5608 5608 5609 5608 5607 5604 5599 5595 5590 5583 5578 5575 5571 5569 5565 5561 5559 5557
5571 5569 5568 5568 5568 5569 5569 5569 5569 5570 5571 5573 5574 5575 5577 5579 5580 5582 5584 5586 5587 5589 5591 5593 5595 5597 5598 5600 5600 5597 5595 5590 5586 5581 5575 5571 5567 5564 5561 5558 5555 5551 5549
5561 5560 5559 5559 5558 5558 5558 5558 5558 5558 5560 5561 5562 5563 5565 5567 5569 5571 5573 5574 5576 5578 5580 5582 5584 5585 5588 5589 5589 5588 5587 5584 5579 5574 5569 5565 5560 5558 5555 5553 5548 5545 5542
5552 5551 5550 5550 5549 5548 5548 5547 5547 5547 5548 5549 5550 5552 5553 5555 5558 5560 5562 5564 5565 5567 5568 5571 5573 5574 5576 5577 5577 5577 5576 5574 5573 5569 5563 5559 5555 5554 5551 5547 5544 5541 5539
5544 5543 5541 5540 5539 5538 5537 5536 5536 5536 5537 5538 5539 5541 5542 5544 5547 5550 5552 5554 5555 5556 5558 5560 5561 5562 5565 5567 5567 5565 5564 5563 5562 5561 5557 5554 5552 5549 5547 5545 5541 5537 5535
5536 5534 5533 5532 5530 5529 5528 5527 5527 5527 5528 5528 5529 5531 5532 5534 5538 5540 5542 5543 5544 5545 5547 5549 5551 5552 5554 5556 5557 5555 5553 5552 5552 5551 5549 5547 5545 5544 5542 5539 5535 5531 5527
5528 5527 5525 5524 5522 5521 5520 5519 5519 5520 5519 5520 5520 5521 5523 5524 5528 5531 5533 5534 5534 5535 5537 5539 5541 5543 5544 5547 5547 5546 5544 5542 5543 5542 5540 5539 5539 5538 5537 5535 5531 5526 5523
5522 5520 5518 5517 5515 5514 5513 5512 5512 5512 5512 5512 5512 5513 5514 5516 5520 5522 5525 5526 5527 5528 5529 5530 5532 5535 5536 5538 5538 5538 5537 5536 5535 5535 5533 5532 5532 5532 5531 5531 5529 5526 5522
5515 5513 5512 5510 5510 5509 5507 5506 5506 5505 5505 5504 5505 5506 5507 5509 5512 5516 5518 5520 5522 5522 5522 5523 5526 5528 5530 5531 5531 5532 5532 5531 5529 5528 5527 5526 5526 5526 5527 5527 5526 5525 5523
5510 5507 5505 5504 5503 5503 5502 5501 5500 5500 5499 5498 5499 5499 5500 5503 5506 5510 5512 5514 5516 5517 5517 5520 5522 5524 5525 5525 5526 5527 5526 5525 5524 5522 5521 5521 5522 5523 5523 5523 5523 5522 5522
5505 5502 5501 5499 5498 5497 5497 5497 5496 5496 5495 5495 5495 5494 5495 5498 5500 5504 5507 5509 5511 5513 5514 5516 5518 5519 5520 5521 5521 5521 5521 5521 5520 5519 5519 5519 5520 5520 5520 5520 5519 5518 5517
5502 5500 5497 5495 5494 5493 5492 5491 5492 5493 5494 5494 5493 5493 5493 5494 5497 5501 5503 5505 5507 5509 5510 5512 5513 5514 5514 5515 5516 5517 5518 5518 5517 5517 5517 5517 5517 5518 5518 5518 5517 5516 5514
5500 5497 5495 5493 5492 5490 5490 5489 5490 5491 5493 5494 5494 5494 5494 5495 5497 5499 5502 5504 5506 5508 5508 5508 5508 5510 5511 5512 5513 5513 5514 5515 5515 5515 5515 5516 5516 5516 5516 5516 5516 5514 5514
5499 5497 5495 5493 5492 5490 5490 5490 5488 5489 5491 5492 5493 5494 5495 5496 5497 5499 5501 5503 5505 5507 5506 5506 5507 5509 5510 5511 5512 5513 5513 5514 5515 5515 5516 5515 5516 5516 5516 5515 5515 5514 5514
5501 5499 5497 5495 5494 5492 5492 5491 5491 5490 5490 5490 5493 5494 5495 5497 5498 5500 5502 5504 5504 5505 5505 5506 5508 5509 5511 5512 5513 5514 5514 5515 5516 5516 5516 5516 5516 5516 5516 5515 5515 5515 5514
5503 5500 5499 5498 5497 5496 5495 5494 5493 5493 5493 5493 5494 5496 5498 5499 5501 5502 5504 5503 5503 5505 5507 5509 5510 5512 5513 5514 5515 5516 5516 5516 5517 5517 5517 5517 5517 5517 5516 5516 5516 5516 5516
5505 5505 5503 5501 5500 5500 5499 5497 5497 5496 5496 5496 5497 5498 5500 5500 5501 5503 5505 5506 5507 5508 5510 5512 5514 5515 5516 5517 5517 5518 5518 5518 5518 5518 5518 5518 5518 5518 5518 5518 5517 5517 5516
5509 5508 5508 5506 5505 5504 5504 5503 5503 5502 5502 5502 5503 5505 5506 5505 5505 5507 5509 5511 5512 5514 5515 5516 5517 5519 5520 5520 5521 5521 5521 5520 5520 5520 5520 5520 5521 5520 5520 5520 5519 5519 5519
5513 5512 5511 5510 5510 5510 5510 5510 5510 5510 5509 5510 5510 5512 5512 5511 5512 5513 5515 5517 5519 5520 5521 5522 5523 5524 5525 5525 5525 5524 5524 5524 5524 5524 5524 5524 5523 5523 5523 5522 5521 5521 5520
5519 5518 5517 5516 5516 5517 5516 5516 5517 5517 5517 5517 5518 5518 5519 5519 5520 5521 5523 5524 5526 5527 5527 5528 5529 5529 5530 5530 5531 5531 5530 5529 5529 5529 5528 5527 5526 5526 5525 5523 5523 5522 5521
5526 5525 5524 5523 5523 5522 5523 5524 5525 5525 5526 5526 5526 5526 5527 5527 5528 5530 5531 5532 5533 5533 5534 5534 5535 5535 5536 5536 5536 5536 5535 5535 5534 5533 5532 5531 5530 5528 5527 5526 5524 5524 5522
5533 5532 5531 5530 5530 5530 5530 5531 5532 5533 5534 5535 5535 5535 5535 5536 5537 5538 5539 5539 5540 5540 5541 5541 5541 5541 5541 5541 5541 5541 5540 5539 5539 5538 5536 5535 5533 5531 5530 5528 5526 5525 5524
5540 5540 5539 5538 5538 5538 5539 5539 5540 5541 5542 5543 5543 5544 5544 5545 5545 5546 5546 5547 5547 5547 5547 5548 5548 5548 5547 5547 5547 5546 5545 5544 5543 5542 5540 5538 5536 5534 5532 5530 5528 5526 5525